Temperature
10 9 9 9 10 11 11 11 10 11 11 10 9 9 10 10 9 9 9 8 8 8 8 8 8 8 8 8 8 8 8 8 8 8 8 8 8 8 8 8 8 8 8 8
9 8 9 10 10 10 10 10 10 10 10 10 9 9 9 9 9 9 8 8 8 7 7 7 7 7 7 7 7 7 7 7 7 7 7 7 7 7 7 7 7 7 7 7
9 9 9 10 9 9 9 9 9 9 9 9 8 8 9 9 9 9 8 8 8 7 7 7 7 7 7 7 7 7 7 7 7 7 7 7 7 7 7 7 7 7 7 7
8 9 9 9 9 8 8 9 9 8 7 7 8 7 9 9 8 8 8 8 7 7 7 6 6 6 6 6 6 6 6 6 6 6 6 6 6 6 6 6 6 6 6 6
8 8 8 8 8 8 8 8 8 7 7 6 7 6 7 9 8 7 7 7 7 6 6 6 6 6 6 6 6 6 5 5 5 5 5 5 6 6 6 5 5 5 5 5
7 7 7 7 8 8 7 7 7 6 6 6 7 7 7 8 8 8 7 7 6 6 6 5 5 5 5 5 5 5 5 5 5 5 5 5 5 5 5 5 5 5 5 5
7 7 6 7 6 6 7 6 6 6 6 6 8 7 7 8 8 7 6 6 5 5 5 4 4 4 5 5 5 5 5 5 4 4 4 4 4 5 5 5 5 4 4 4
7 6 6 6 6 5 6 6 6 6 6 7 7 6 7 7 7 7 7 6 5 4 4 4 4 4 4 4 4 4 4 4 4 4 4 4 4 4 4 4 4 4 4 4
6 6 5 6 6 6 6 6 6 5 5 5 6 8 7 6 6 5 5 5 4 4 3 3 3 3 3 3 3 4 3 3 3 3 3 3 3 3 4 4 4 4 4 4
6 5 5 5 5 5 5 6 5 5 5 5 7 7 7 6 5 4 4 4 4 3 3 3 2 2 3 3 3 3 3 3 3 3 3 3 3 3 3 3 3 3 3 3
5 4 4 4 3 4 4 4 5 5 5 5 5 7 7 6 5 4 3 3 3 2 2 2 2 2 2 2 2 2 2 2 2 2 2 2 2 2 2 2 2 2 2 2
4 4 3 4 4 4 4 5 4 4 4 4 4 5 5 4 4 3 3 3 2 2 2 1 1 1 1 1 1 1 2 2 2 2 1 2 2 2 2 2 2 2 2 2
3 3 3 4 3 3 3 3 4 3 3 3 4 4 4 3 3 3 2 2 2 1 1 1 0 0 0 0 0 0 1 1 1 1 1 1 1 1 1 1 1 1 1 1
3 2 2 4 4 3 2 2 3 2 2 3 4 4 4 3 2 2 2 2 1 0 -0 -0 -0 -0 -0 -0 -0 -0 -0 0 0 0 0 0 0 0 0 0 1 1 1 1
2 1 2 2 3 3 2 2 2 2 2 2 3 3 4 3 2 2 1 1 -0 -1 -1 -1 -2 -2 -1 -1 -1 -1 -1 -1 -1 -0 -0 -0 -0 -0 -0 -0 -0 -0 -0 -0
1 1 1 1 2 2 1 2 2 2 2 2 2 2 2 2 2 1 0 -0 -1 -2 -2 -2 -2 -2 -2 -2 -2 -2 -2 -1 -1 -1 -1 -1 -1 -1 -1 -1 -1 -1 -1 -1
0 -0 0 1 2 1 0 1 1 1 1 1 1 1 1 0 -0 -1 -1 -1 -2 -2 -3 -3 -3 -3 -3 -3 -3 -3 -3 -2 -2 -2 -2 -2 -2 -2 -2 -2 -2 -2 -2 -2
-0 -0 -0 0 0 0 2 1 1 1 1 0 0 0 -0 -0 -1 -1 -1 -2 -2 -3 -3 -3 -4 -4 -4 -4 -4 -4 -3 -3 -3 -3 -3 -3 -3 -3 -2 -2 -2 -2 -2 -2
-0 -0 -0 -0 -0 0 2 0 -0 -0 -0 -0 -0 -1 -1 -1 -1 -2 -2 -2 -3 -3 -3 -4 -4 -4 -4 -4 -4 -4 -4 -4 -4 -4 -3 -3 -3 -3 -3 -3 -3 -3 -3 -3
-1 -1 -1 -0 -0 0 1 -1 -1 -0 -1 -1 -1 -2 -2 -2 -3 -3 -3 -3 -3 -4 -4 -4 -5 -5 -5 -5 -5 -5 -5 -4 -4 -4 -4 -4 -4 -4 -4 -4 -4 -4 -4 -4
-2 -2 -2 -1 -1 -1 -1 -2 -1 -1 -1 -2 -2 -2 -3 -4 -3 -4 -4 -4 -4 -5 -5 -5 -5 -6 -6 -6 -6 -6 -5 -5 -5 -5 -5 -5 -5 -5 -5 -5 -5 -5 -5 -5
-2 -2 -2 -2 -1 -1 -3 -3 -2 -2 -2 -3 -3 -3 -3 -4 -4 -4 -5 -5 -5 -5 -6 -6 -6 -6 -6 -6 -7 -7 -7 -7 -6 -6 -6 -6 -6 -6 -6 -6 -6 -6 -6 -6
-2 -2 -2 -2 -1 -2 -3 -3 -3 -3 -3 -4 -4 -4 -4 -5 -5 -5 -6 -6 -6 -6 -7 -7 -7 -7 -7 -7 -7 -7 -7 -7 -7 -7 -7 -7 -7 -6 -6 -6 -6 -7 -7 -7
-3 -3 -3 -3 -3 -3 -3 -3 -3 -3 -4 -4 -4 -4 -5 -5 -6 -6 -7 -7 -7 -7 -7 -7 -8 -8 -8 -8 -8 -8 -8 -8 -8 -8 -8 -8 -7 -7 -7 -7 -7 -7 -8 -8
-3 -5 -4 -4 -4 -4 -4 -4 -4 -4 -5 -5 -5 -5 -6 -6 -7 -7 -8 -8 -8 -8 -8 -8 -8 -9 -9 -9 -9 -9 -9 -9 -9 -9 -9 -9 -9 -9 -8 -8 -8 -8 -9 -9
-5 -6 -5 -4 -5 -5 -5 -4 -5 -5 -5 -6 -6 -6 -7 -7 -7 -8 -8 -8 -9 -9 -9 -9 -9 -9 -9 -9 -9 -10 -10 -10 -10 -10 -10 -10 -10 -10 -9 -9 -9 -9 -9 -9
Wind_Speed
4 4 5 6 7 7 6 7 8 6 1 4 9 11 9 6 6 7 6 6 6 5 4 3 3 3 3 2 2 2 2 2 2 2 2 2 2 2 2 3 5 5 5 5
3 7 6 4 5 7 8 9 9 5 2 4 8 12 10 8 8 8 8 7 6 5 4 4 4 4 3 3 2 2 2 2 2 2 2 2 2 2 3 3 4 5 5 5
7 2 3 6 6 7 9 8 7 6 6 6 6 8 8 7 7 6 6 5 5 5 5 4 4 4 3 3 3 2 2 2 2 2 2 2 1 2 2 2 3 3 5 5
6 5 4 6 7 6 7 3 4 5 4 4 3 6 6 5 5 5 6 5 5 4 4 4 4 4 3 3 2 2 2 2 3 3 3 3 3 3 3 3 3 4 5 5
4 3 6 7 5 5 3 2 4 5 5 6 6 6 7 4 5 6 6 5 4 3 3 3 3 3 3 3 3 2 2 3 3 3 3 3 2 3 3 4 4 4 4 5
4 2 2 3 3 3 2 2 3 3 3 6 8 7 6 4 5 3 4 4 4 4 3 2 2 2 2 3 3 3 3 2 3 3 3 3 3 4 4 4 5 4 3 3
5 5 3 1 2 2 3 1 1 2 4 7 4 6 6 3 2 3 4 4 4 4 3 2 2 2 2 2 2 2 3 2 3 3 3 3 3 4 6 6 6 5 4 4
4 5 6 4 4 4 5 4 3 4 4 3 2 7 4 2 3 3 3 4 4 3 2 2 1 1 1 2 2 1 2 2 3 3 3 4 4 3 4 5 5 5 5 5
3 3 2 2 1 2 4 5 2 2 3 4 5 4 2 3 3 3 3 3 2 2 2 2 1 0 1 1 1 2 2 2 3 3 3 4 4 3 4 4 4 5 4 4
2 3 2 2 1 3 3 1 2 4 3 5 6 6 4 3 2 2 2 1 1 2 2 1 0 0 0 0 0 1 1 2 3 3 4 4 4 4 4 4 4 5 5 5
2 2 2 3 7 7 4 4 5 4 4 4 5 4 1 4 3 3 1 1 1 1 1 1 1 1 1 1 1 1 1 2 2 3 3 4 4 3 4 4 4 4 4 5
2 2 4 5 2 1 4 5 5 4 5 4 4 5 2 5 4 3 2 2 1 1 1 1 1 1 1 1 1 1 2 2 3 3 3 3 4 3 3 4 4 4 4 5
2 2 2 2 1 1 3 5 5 3 2 5 5 6 0 3 3 2 2 2 2 2 2 2 2 1 1 1 2 2 2 3 3 3 3 3 3 3 4 4 4 4 4 4
2 4 6 7 4 3 5 6 7 6 6 7 9 9 6 3 2 2 1 1 1 1 1 2 2 2 2 2 2 2 3 3 3 3 3 3 3 4 4 3 4 4 4 4
2 5 6 8 8 6 8 9 10 12 11 9 9 10 9 5 3 1 0 1 1 2 2 3 3 3 3 3 3 3 4 3 3 3 3 3 3 3 2 3 3 3 3 4
3 4 3 6 8 7 10 11 11 13 12 13 12 13 8 4 1 1 0 0 1 2 3 3 3 3 3 4 4 4 4 4 3 3 3 3 2 2 2 3 2 3 3 3
4 3 3 5 2 4 9 10 11 9 8 9 13 11 4 3 2 2 1 1 2 3 3 3 3 3 3 3 4 4 5 4 3 4 4 3 3 2 3 3 3 3 3 3
5 5 3 3 2 9 8 3 6 8 9 9 7 6 3 3 2 1 0 1 2 3 3 3 3 3 3 3 3 4 4 4 3 4 4 3 3 3 3 3 4 4 3 3
6 6 4 3 5 9 6 2 4 6 7 7 8 7 4 2 1 1 1 0 1 2 2 2 2 3 3 3 4 3 4 3 3 4 4 4 3 3 3 3 3 3 3 3
3 4 5 5 5 7 4 1 1 2 5 2 4 5 2 1 2 3 2 2 2 2 1 2 2 2 3 4 3 3 3 3 4 4 4 3 3 3 3 3 3 2 2 3
4 5 8 8 7 8 3 2 3 4 5 1 0 1 1 2 3 1 2 3 2 2 2 2 2 3 3 4 3 3 4 5 5 5 4 3 3 3 3 3 3 2 2 2
7 6 7 6 7 8 2 4 5 4 1 1 1 1 1 0 1 2 2 2 2 2 2 3 2 3 3 4 3 4 5 5 5 5 4 4 3 3 2 2 2 2 2 2
7 7 5 7 7 2 4 3 1 1 0 0 0 1 1 1 0 1 1 2 2 2 2 2 2 3 4 4 4 4 5 5 5 4 4 4 4 3 3 2 2 2 2 2
4 2 3 5 6 3 3 1 1 1 0 1 0 1 1 1 1 0 0 1 1 2 2 2 2 3 4 4 4 4 5 5 5 4 4 4 3 3 3 3 2 2 2 2
4 4 4 6 5 3 2 3 2 1 0 0 1 1 1 1 1 0 0 0 1 1 2 2 2 2 3 4 4 5 5 5 4 4 4 4 4 3 3 3 3 3 2 3
4 5 6 6 3 3 3 1 1 2 2 1 1 0 1 1 1 0 0 0 0 1 1 1 2 2 3 4 4 5 5 4 4 4 4 4 3 3 3 3 3 5 4 5
Wind_Direction
197 218 218 219 226 255 281 272 274 275 239 245 248 258 256 229 223 233 229 216 210 214 206 172 159 157 148 143 154 161 154 155 148 159 167 166 186 166 146 125 130 137 137 138
205 227 234 250 254 256 267 270 272 286 281 266 268 269 264 235 223 225 224 218 210 209 203 181 166 161 164 173 176 166 173 169 172 186 184 171 170 166 153 132 134 143 142 143
225 222 216 241 251 252 253 256 270 286 309 270 272 278 247 234 221 221 217 211 208 201 200 188 175 175 171 177 186 191 182 175 175 168 156 136 130 142 146 160 164 156 154 150
241 239 233 236 240 240 255 275 276 275 285 276 228 280 258 222 217 218 212 205 203 195 190 184 175 178 181 185 178 186 179 172 175 167 168 168 183 184 183 180 177 171 169 162
236 209 227 233 234 234 255 307 274 264 258 272 241 249 269 203 222 221 210 196 177 170 172 170 169 177 176 163 162 180 172 169 172 176 179 181 194 190 166 166 172 176 172 172
248 250 262 255 249 244 243 278 266 256 249 256 226 216 268 213 211 196 192 173 156 150 143 144 147 146 155 153 155 166 171 175 169 172 185 183 196 196 173 173 182 185 181 180
234 219 205 216 221 206 214 181 259 236 224 246 200 214 248 202 148 160 159 155 149 142 143 147 147 153 152 153 166 168 174 182 179 180 196 197 202 206 193 188 188 187 187 192
233 234 187 189 205 201 213 201 201 232 245 277 221 230 240 141 113 105 111 118 118 117 115 99 100 135 159 163 156 168 199 200 195 191 202 207 205 212 208 198 191 194 202 202
248 238 145 170 240 219 200 215 228 281 279 269 248 244 247 151 104 99 105 102 109 115 108 97 79 108 127 149 177 199 213 223 216 210 206 210 208 220 217 204 197 199 203 203
291 266 208 155 204 250 264 225 176 204 233 251 256 239 229 184 177 138 118 108 82 94 92 99 105 86 138 195 193 181 210 234 241 228 221 224 215 218 222 208 205 204 204 201
266 229 213 191 206 202 190 208 211 221 234 233 261 257 77 136 138 142 131 110 114 97 111 118 80 65 71 36 13 345 280 254 252 253 244 234 220 215 221 214 214 210 208 203
205 238 242 227 216 257 215 212 193 203 235 229 254 268 48 92 100 105 111 86 86 89 68 69 71 63 40 13 1 330 308 291 278 265 256 247 230 210 221 223 216 213 208 209
160 203 258 252 250 221 243 229 223 232 233 226 227 252 105 75 63 66 81 76 62 45 31 31 40 47 24 353 337 325 310 299 295 284 269 257 244 218 221 229 218 212 210 211
199 217 219 234 259 209 238 237 222 211 226 240 234 251 273 305 330 356 37 66 63 39 22 9 360 353 349 342 337 328 320 312 306 297 272 261 254 233 222 232 220 212 212 209
202 239 242 260 271 259 249 240 224 221 226 233 251 259 266 274 277 290 355 29 30 353 349 352 345 338 341 344 340 327 317 317 311 301 280 272 269 259 234 233 229 216 216 222
214 252 268 267 253 253 263 251 231 231 235 241 260 269 269 282 322 313 259 328 283 301 311 323 331 335 334 330 325 325 321 314 312 303 293 289 282 278 257 241 234 229 227 227
200 209 233 259 260 298 263 237 220 220 219 220 240 252 287 311 298 260 274 262 256 283 301 309 313 315 318 322 325 319 313 316 311 302 302 299 293 281 273 262 244 236 235 230
203 204 226 261 269 245 246 181 192 218 232 224 237 256 261 256 254 205 149 218 280 300 299 296 302 312 321 328 329 320 316 314 308 301 302 304 296 286 277 260 245 241 241 238
212 203 222 227 246 265 259 209 178 206 251 230 236 253 266 284 311 244 100 107 280 292 301 304 319 321 328 330 329 325 317 314 311 306 304 306 303 291 281 272 257 247 244 249
211 210 220 225 238 246 248 163 127 134 268 257 222 241 252 102 263 265 0 13 6 11 18 6 356 352 345 338 341 336 326 323 316 309 304 306 301 289 283 277 273 270 253 255
187 208 220 230 241 258 252 180 131 183 251 327 173 219 176 202 233 267 22 16 18 23 32 31 16 2 348 347 351 343 333 323 317 314 310 311 309 297 285 283 285 280 263 255
191 198 208 210 227 246 169 143 182 221 38 43 26 51 123 138 47 42 29 22 22 20 22 27 17 359 354 358 358 344 330 325 326 320 319 317 318 314 310 296 292 284 260 249
205 203 206 208 223 232 159 176 179 76 162 14 50 28 110 106 74 25 13 17 13 10 8 16 21 6 2 360 359 342 330 333 335 334 328 325 329 325 317 297 289 288 273 257
230 220 228 254 256 240 212 191 138 115 229 319 113 128 130 165 180 359 356 13 3 6 9 18 21 8 354 353 356 346 335 339 342 340 335 334 338 336 331 322 311 298 287 272
229 191 227 250 265 292 252 224 227 198 115 86 58 77 129 155 186 184 150 335 346 349 3 10 10 352 343 349 350 347 344 347 349 343 343 344 343 337 339 343 339 323 304 288
214 206 216 242 233 223 250 232 198 182 202 189 141 51 50 107 155 123 166 111 14 343 352 2 358 349 343 345 343 341 341 345 347 344 345 342 337 338 339 342 347 348 336 334
Height
1494 1496 1496 1495 1494 1493 1492 1492 1492 1489 1489 1491 1491 1489 1486 1486 1487 1487 1488 1488 1489 1490 1492 1493 1494 1495 1496 1497 1499 1500 1501 1503 1504 1505 1507 1508 1510 1511 1513 1514 1516 1518 1520 1521
1494 1495 1492 1492 1492 1492 1492 1493 1492 1489 1488 1490 1489 1486 1481 1480 1480 1481 1482 1483 1484 1486 1488 1489 1490 1492 1493 1494 1495 1496 1498 1500 1501 1502 1504 1506 1507 1508 1510 1512 1514 1515 1517 1519
1491 1490 1490 1491 1492 1492 1492 1493 1492 1493 1491 1488 1490 1485 1477 1474 1474 1476 1478 1479 1480 1482 1484 1486 1487 1488 1489 1490 1492 1493 1495 1496 1498 1499 1501 1503 1504 1506 1507 1509 1511 1512 1514 1515
1490 1489 1489 1490 1491 1492 1492 1490 1491 1493 1496 1495 1490 1493 1474 1471 1472 1473 1474 1475 1477 1479 1481 1482 1484 1485 1486 1487 1489 1490 1492 1493 1495 1496 1497 1498 1499 1501 1502 1505 1507 1509 1511 1512
1488 1487 1488 1489 1489 1491 1491 1491 1492 1493 1495 1496 1490 1493 1476 1468 1471 1470 1471 1472 1473 1476 1478 1479 1480 1482 1483 1485 1486 1487 1488 1490 1491 1492 1494 1495 1496 1498 1500 1502 1504 1506 1507 1508
1487 1487 1488 1487 1488 1489 1491 1492 1493 1494 1496 1497 1485 1488 1476 1468 1466 1466 1468 1469 1472 1474 1475 1477 1478 1479 1481 1482 1483 1484 1485 1486 1488 1489 1490 1492 1493 1494 1496 1497 1499 1501 1503 1504
1486 1486 1486 1488 1489 1490 1491 1495 1498 1496 1496 1489 1476 1479 1473 1463 1462 1463 1466 1468 1470 1472 1473 1474 1475 1476 1477 1478 1480 1481 1482 1483 1484 1486 1487 1488 1490 1491 1492 1493 1495 1496 1498 1500
1485 1486 1485 1486 1487 1490 1490 1491 1496 1496 1489 1481 1477 1477 1468 1462 1462 1462 1465 1467 1468 1470 1471 1472 1473 1473 1474 1475 1476 1478 1479 1479 1481 1482 1483 1485 1486 1487 1488 1489 1490 1492 1493 1495
1484 1483 1484 1484 1485 1487 1488 1489 1488 1493 1489 1489 1477 1466 1464 1461 1462 1463 1465 1466 1467 1469 1470 1470 1471 1471 1471 1472 1473 1474 1475 1476 1477 1478 1480 1481 1482 1483 1484 1486 1487 1488 1489 1491
1483 1487 1485 1485 1487 1487 1487 1486 1491 1493 1491 1486 1472 1465 1463 1463 1463 1463 1465 1466 1467 1468 1468 1469 1469 1469 1469 1470 1470 1471 1471 1472 1474 1475 1476 1477 1478 1479 1480 1481 1482 1483 1484 1486
1484 1488 1487 1486 1486 1484 1487 1488 1486 1487 1485 1484 1478 1467 1457 1458 1459 1462 1464 1465 1466 1467 1467 1468 1467 1467 1467 1467 1467 1467 1468 1469 1469 1470 1472 1473 1473 1475 1475 1476 1477 1478 1480 1481
1483 1485 1486 1482 1480 1480 1480 1481 1484 1488 1486 1482 1480 1472 1459 1459 1459 1461 1463 1464 1465 1466 1466 1466 1466 1465 1465 1465 1464 1464 1464 1465 1465 1466 1467 1468 1469 1470 1470 1471 1472 1474 1475 1476
1483 1486 1487 1482 1484 1484 1482 1480 1480 1483 1484 1482 1480 1471 1460 1460 1460 1461 1463 1463 1464 1464 1464 1464 1463 1463 1462 1462 1461 1461 1461 1461 1461 1462 1462 1463 1464 1465 1465 1466 1468 1468 1469 1471
1481 1484 1484 1479 1473 1478 1481 1479 1478 1482 1483 1477 1469 1463 1460 1460 1460 1461 1462 1462 1463 1463 1463 1462 1461 1461 1460 1459 1459 1458 1458 1458 1458 1458 1458 1458 1459 1460 1460 1462 1463 1463 1464 1465
1480 1482 1479 1476 1472 1473 1473 1474 1474 1476 1474 1474 1464 1461 1458 1458 1460 1460 1460 1460 1461 1461 1460 1460 1459 1458 1457 1456 1456 1455 1455 1454 1454 1454 1454 1454 1454 1455 1456 1457 1458 1458 1459 1460
1479 1481 1479 1476 1471 1470 1470 1467 1468 1469 1468 1466 1463 1460 1455 1456 1458 1458 1459 1459 1459 1458 1458 1457 1457 1456 1455 1453 1452 1452 1451 1450 1450 1450 1449 1450 1450 1450 1451 1452 1453 1453 1454 1455
1479 1480 1480 1474 1469 1470 1469 1461 1461 1462 1460 1460 1460 1456 1453 1455 1456 1456 1456 1456 1456 1456 1455 1454 1454 1453 1452 1450 1449 1448 1447 1447 1446 1446 1445 1445 1446 1446 1446 1447 1448 1449 1449 1450
1476 1477 1478 1475 1475 1474 1455 1450 1451 1453 1453 1454 1453 1451 1452 1453 1453 1454 1454 1454 1453 1453 1452 1452 1451 1450 1449 1447 1446 1445 1444 1443 1442 1442 1441 1441 1441 1442 1442 1442 1443 1444 1444 1445
1470 1473 1474 1473 1472 1461 1450 1450 1450 1452 1451 1449 1449 1449 1450 1450 1451 1451 1452 1451 1451 1451 1450 1449 1448 1447 1445 1444 1443 1441 1440 1439 1438 1438 1437 1437 1438 1438 1438 1438 1438 1439 1439 1439
1469 1470 1473 1470 1469 1461 1447 1449 1447 1450 1452 1446 1446 1446 1448 1449 1451 1450 1449 1448 1448 1448 1447 1446 1445 1444 1443 1441 1440 1438 1437 1436 1435 1434 1434 1434 1434 1434 1434 1434 1434 1434 1434 1434
1470 1470 1470 1467 1465 1455 1448 1447 1448 1454 1449 1446 1444 1445 1446 1447 1448 1448 1447 1446 1446 1445 1444 1443 1442 1441 1440 1438 1437 1435 1434 1433 1432 1431 1430 1430 1430 1430 1430 1429 1429 1429 1429 1430
1462 1464 1464 1462 1461 1453 1447 1447 1448 1447 1445 1444 1443 1443 1444 1444 1445 1445 1444 1444 1443 1442 1441 1440 1439 1438 1437 1436 1434 1432 1431 1430 1429 1427 1427 1426 1426 1425 1425 1425 1425 1425 1425 1424
1454 1453 1452 1452 1449 1444 1443 1443 1443 1444 1443 1443 1442 1442 1442 1442 1442 1442 1442 1441 1441 1440 1439 1438 1436 1435 1434 1433 1432 1430 1429 1427 1426 1424 1423 1423 1422 1422 1421 1421 1420 1420 1420 1420
1448 1447 1448 1447 1443 1441 1441 1441 1441 1441 1441 1441 1441 1441 1440 1440 1440 1440 1439 1439 1438 1437 1436 1435 1434 1433 1432 1431 1430 1428 1427 1425 1423 1422 1421 1420 1419 1418 1418 1418 1417 1417 1416 1416
1444 1446 1445 1443 1440 1440 1438 1439 1439 1439 1439 1439 1438 1438 1438 1438 1437 1437 1436 1436 1436 1435 1434 1433 1432 1431 1430 1429 1427 1426 1424 1423 1421 1420 1418 1417 1416 1416 1415 1414 1414 1413 1413 1413
1440 1442 1443 1439 1438 1438 1437 1436 1436 1436 1436 1435 1435 1435 1435 1435 1435 1434 1434 1434 1433 1433 1432 1431 1430 1429 1428 1426 1425 1424 1423 1421 1419 1417 1416 1415 1414 1413 1412 1411 1410 1410 1410 1409